Champaign, IL

1:22 PM CST on February 23, 2018 (GMT -0600)
Univ Of Illinois-Willard

Weather History for KCMI - November, 2011

Change the Weather History Date:

Monday, November 21, 2011

  Actual Average Record
Temperature  
Mean Temperature 44 °F 39 °F  
Max Temperature 48 °F 48 °F 63 °F (2010)
Min Temperature 39 °F 30 °F 8 °F (2014)
Degree Days  
Heating Degree Days 21 26  
Month to date heating degree days 360 445  
Since 1 July heating degree days 803 906  
Cooling Degree Days 0 0  
Month to date cooling degree days 0 0  
Year to date cooling degree days 1222 944  
Moisture  
Dew Point 40 °F    
Average Humidity 86    
Maximum Humidity 93    
Minimum Humidity 79    
Precipitation  
Precipitation 0.00 in 0.12 in 2.20 in (2007)
Month to date precipitation 2.53 2.45  
Year to date precipitation 27.62 36.15  
Sea Level Pressure  
Sea Level Pressure 30.19 in    
Wind  
Wind Speed 12 mph (NE)    
Max Wind Speed 18 mph    
Max Gust Speed 22 mph    
Visibility 8 miles    
Events      
T = Trace of Precipitation, MM = Missing Value Source: NWS Daily Summary

Daily Weather History Graph

Daily Weather History Graph

Search for Another Location

Airport or City:

Trip Planner

Search our weather history database for the weather conditions in past years. The results will help you decide how hot, cold, wet, or windy it might be!

Date:

Astronomy

Nov. 21, 2011 Rise Set
Actual Time 6:44 AM CST 4:32 PM CST
Civil Twilight 6:15 AM CST 5:02 PM CST
Nautical Twilight 5:42 AM CST 5:35 PM CST
Astronomical Twilight 5:10 AM CST 6:07 PM CST
Moon 2:23 AM CST (11/21) 1:55 PM CST (11/21)
Length of Visible Light 10h 46m
Length of Day
9h 47m
Waning Crescent, 17% of the Moon is Illuminated
Nov 21
Waning Crescent
Nov 25
New
Dec 2
First Quarter
Dec 10
Full
Dec 17
Last Quarter

Hourly Weather History & Observations

Time (CST) Temp. Windchill Dew Point Humidity Pressure Visibility Wind Dir Wind Speed Gust Speed Precip Events Conditions
12:53 AM 41.0 °F 33.9 °F 36.0 °F 82% 30.23 in 10.0 mi ENE 12.7 mph - N/A   Overcast
1:53 AM 41.0 °F 33.9 °F 37.0 °F 86% 30.22 in 10.0 mi ENE 12.7 mph - N/A   Overcast
2:53 AM 41.0 °F 33.5 °F 36.0 °F 82% 30.21 in 10.0 mi NE 13.8 mph - N/A   Overcast
3:53 AM 41.0 °F 33.9 °F 36.0 °F 82% 30.23 in 10.0 mi NE 12.7 mph - N/A   Overcast
4:53 AM 41.0 °F 32.8 °F 37.0 °F 86% 30.21 in 10.0 mi ENE 16.1 mph - N/A   Overcast
5:53 AM 39.2 °F 32.0 °F 37.4 °F 93% 30.20 in 10.0 mi ENE 11.5 mph - N/A   Mostly Cloudy
6:53 AM 39.9 °F 33.4 °F 37.0 °F 89% 30.23 in 10.0 mi NE 10.4 mph - N/A   Overcast
7:14 AM 41.0 °F 35.8 °F 37.4 °F 87% 30.23 in 10.0 mi NE 8.1 mph - N/A   Overcast
7:49 AM 42.8 °F 37.5 °F 37.4 °F 81% 30.24 in 10.0 mi NE 9.2 mph - N/A   Overcast
7:53 AM 42.1 °F 36.1 °F 37.9 °F 85% 30.25 in 10.0 mi NE 10.4 mph - N/A   Overcast
8:53 AM 42.1 °F 35.2 °F 39.0 °F 89% 30.24 in 10.0 mi NE 12.7 mph - N/A   Overcast
9:36 AM 44.6 °F 38.4 °F 39.2 °F 81% 30.23 in 10.0 mi NE 12.7 mph - N/A   Overcast
9:46 AM 44.6 °F 38.4 °F 39.2 °F 81% 30.23 in 10.0 mi ENE 12.7 mph - N/A   Overcast
9:53 AM 44.1 °F 37.4 °F 39.9 °F 85% 30.25 in 10.0 mi ENE 13.8 mph - N/A   Overcast
10:53 AM 46.0 °F 40.6 °F 42.1 °F 86% 30.22 in 8.0 mi ENE 11.5 mph - N/A   Overcast
11:53 AM 46.9 °F - 42.1 °F 83% 30.20 in 8.0 mi NE 10.4 mph - N/A   Overcast
12:53 PM 46.9 °F - 43.0 °F 86% 30.19 in 6.0 mi NE 10.4 mph - N/A   Overcast
1:53 PM 48.0 °F - 43.0 °F 83% 30.16 in 6.0 mi NE 10.4 mph - N/A   Haze
2:24 PM 46.4 °F 40.4 °F 42.8 °F 87% 30.15 in 2.5 mi NE 13.8 mph - N/A   Overcast
2:53 PM 46.9 °F - 44.1 °F 90% 30.17 in 2.5 mi NE 9.2 mph - N/A   Overcast
3:19 PM 46.4 °F 41.1 °F 44.6 °F 93% 30.15 in 3.0 mi NE 11.5 mph - N/A   Overcast
3:28 PM 46.4 °F 41.5 °F 44.6 °F 93% 30.14 in 3.0 mi NE 10.4 mph - N/A   Overcast
3:53 PM 46.9 °F - 43.0 °F 86% 30.16 in 5.0 mi ENE 12.7 mph - N/A   Overcast
4:53 PM 46.0 °F 39.9 °F 42.1 °F 86% 30.16 in 8.0 mi ENE 13.8 mph - N/A   Overcast
5:53 PM 46.0 °F 40.6 °F 41.0 °F 83% 30.16 in 8.0 mi ENE 11.5 mph - N/A   Overcast
6:43 PM 44.6 °F 39.2 °F 41.0 °F 87% 30.14 in 8.0 mi NE 10.4 mph - N/A   Overcast
6:53 PM 45.0 °F 40.1 °F 41.0 °F 86% 30.16 in 8.0 mi ENE 9.2 mph - N/A   Overcast
7:05 PM 44.6 °F 38.8 °F 41.0 °F 87% 30.14 in 7.0 mi ENE 11.5 mph - N/A   Overcast
7:53 PM 45.0 °F 39.3 °F 41.0 °F 86% 30.13 in 7.0 mi ENE 11.5 mph - N/A   Overcast
8:53 PM 45.0 °F 38.9 °F 41.0 °F 86% 30.14 in 7.0 mi ENE 12.7 mph - N/A   Overcast
9:53 PM 45.0 °F 39.3 °F 41.0 °F 86% 30.13 in 6.0 mi ENE 11.5 mph - N/A   Overcast
10:20 PM 44.6 °F 39.7 °F 41.0 °F 87% 30.12 in 5.0 mi ENE 9.2 mph - N/A   Overcast
10:53 PM 45.0 °F 39.7 °F 41.0 °F 86% 30.15 in 5.0 mi ENE 10.4 mph - N/A   Overcast
11:53 PM 44.1 °F 39.0 °F 41.0 °F 89% 30.13 in 5.0 mi ENE 9.2 mph - N/A   Overcast